Theta_e
307 303 298 301 302 301 300 298 297 300 302 302 301 302 303 311 315 314 316 317 317 318 321 324 326 328 330 331 330 331 329 327 326 323 319 317 316 316 317 317 317 317 316 316
303 299 302 303 302 301 300 299 298 300 301 303 303 303 305 309 312 315 315 316 317 318 320 322 326 328 329 329 330 330 329 329 330 328 324 321 319 318 317 317 316 316 315 315
301 301 303 303 302 300 300 299 299 298 300 303 303 300 303 305 310 311 314 316 318 319 319 321 323 327 329 329 329 329 329 329 327 323 321 320 318 317 315 316 315 314 314 314
302 303 302 303 301 302 298 302 301 300 299 295 301 293 301 305 305 308 311 314 316 316 318 318 317 318 321 324 325 324 325 324 322 322 319 316 316 314 316 318 316 316 315 314
300 301 301 300 300 302 300 303 302 300 300 299 298 295 300 304 303 306 310 313 316 317 317 313 314 316 317 319 319 320 319 318 318 318 318 317 315 315 316 317 313 313 313 311
303 306 305 303 304 304 305 303 303 302 300 293 297 296 296 301 303 307 311 313 315 315 315 314 315 316 316 318 319 318 317 316 317 317 317 316 314 310 310 309 307 307 307 307
301 301 304 305 303 305 304 300 293 291 291 290 298 296 297 303 304 308 310 312 314 313 313 313 313 314 315 316 317 317 316 314 315 315 313 311 309 307 306 306 306 304 304 304
296 293 300 303 303 300 300 299 293 283 287 292 297 293 300 305 306 309 312 313 312 312 314 314 314 315 315 315 316 315 314 312 311 310 308 308 307 309 307 306 306 305 304 305
296 295 302 302 304 304 300 297 301 294 294 292 296 298 302 304 305 307 310 310 310 312 313 314 315 315 316 316 315 315 312 309 307 305 305 304 306 306 305 306 306 306 306 305
301 294 300 301 304 304 302 303 295 297 286 284 290 292 295 300 303 305 308 308 311 312 313 314 314 314 315 314 313 311 308 304 303 303 303 303 305 305 305 305 304 303 303 303
304 300 297 300 299 298 299 298 298 298 294 287 286 292 302 302 305 306 308 310 311 312 311 311 311 311 311 310 308 306 305 303 302 300 301 304 304 302 301 301 300 300 300 299
303 301 296 297 301 302 301 299 299 292 290 294 293 291 301 304 306 308 309 310 312 311 309 308 308 306 306 306 305 302 305 302 300 302 302 300 300 300 299 298 299 299 298 299
303 299 293 294 298 301 298 300 299 296 297 292 290 292 301 304 304 308 309 308 308 307 306 306 305 305 305 303 302 300 301 299 299 300 299 299 298 298 298 298 298 298 298 298
302 300 297 293 294 299 295 297 298 297 291 291 292 293 297 301 303 305 308 308 306 305 305 305 304 303 302 301 300 300 297 298 299 298 297 296 297 298 298 297 297 297 298 297
304 297 297 295 295 295 296 296 297 295 296 292 294 293 297 300 303 305 307 306 304 304 303 303 302 301 301 300 298 297 297 298 297 296 295 296 298 298 297 297 297 297 297 297
301 297 296 293 294 294 292 295 296 297 297 296 296 295 301 302 303 304 304 304 302 303 302 302 301 300 299 297 297 295 296 297 296 295 294 295 296 296 297 296 296 296 296 296
300 298 294 290 291 291 290 295 296 296 298 297 294 298 301 300 301 303 304 303 303 302 301 300 299 297 296 296 295 295 296 296 294 293 293 293 294 294 295 295 295 295 295 294
297 296 293 291 287 285 294 297 297 297 299 300 298 299 301 302 304 306 307 305 303 303 301 299 298 296 296 296 295 295 295 294 292 292 292 292 293 293 294 295 294 294 293 293
299 296 289 291 287 291 293 293 293 293 294 299 299 299 301 302 303 303 306 306 305 303 302 300 299 297 295 295 295 294 293 292 291 290 291 292 293 293 294 293 294 294 291 291
296 297 297 288 289 287 292 296 300 299 291 300 301 301 301 302 298 299 305 305 304 302 301 298 295 293 294 294 294 292 291 290 290 290 291 292 293 293 293 293 293 292 291 290
293 292 292 290 290 292 296 298 300 289 292 301 302 303 302 301 303 302 306 303 301 300 296 292 292 292 293 293 292 290 290 290 290 291 292 292 292 291 291 289 291 291 290 288
293 292 289 288 288 286 298 298 294 300 302 302 303 304 304 303 300 302 302 300 297 293 290 291 291 291 292 292 291 290 290 291 291 291 291 291 291 290 290 289 291 290 289 286
293 297 296 295 296 299 301 303 304 302 301 303 303 304 304 301 300 300 298 295 290 289 290 291 291 290 291 291 290 289 290 291 291 290 290 290 291 290 290 289 288 286 287 286
298 298 297 295 298 299 301 303 303 304 303 304 304 305 304 302 300 296 291 288 288 288 289 290 290 289 288 290 290 291 291 291 290 289 288 286 286 288 289 288 287 286 285 284
299 298 297 296 300 300 301 302 303 303 302 302 302 303 303 302 296 290 287 287 288 288 289 290 289 288 288 290 290 291 290 290 289 288 287 286 285 285 286 287 287 286 287 286
299 298 296 297 298 299 299 301 302 302 301 302 300 298 298 294 290 288 287 288 289 290 290 289 289 289 289 289 289 289 290 290 289 287 287 286 285 285 285 284 285 285 284 284
Wind_Speed
6 8 9 14 5 5 3 7 13 8 4 7 5 6 4 5 8 10 11 10 7 6 5 6 6 7 9 11 13 14 14 11 7 3 4 5 7 6 4 5 6 5 5 5
7 4 4 5 3 5 6 7 7 6 5 5 10 9 7 8 7 8 8 8 8 8 8 7 8 9 9 11 12 12 12 11 9 6 7 6 6 4 4 4 5 6 5 5
8 6 3 5 7 8 5 5 10 6 7 2 8 7 9 6 7 6 5 5 8 9 11 11 9 9 11 12 11 10 10 10 8 8 6 5 4 4 3 3 3 4 4 4
4 3 5 7 6 4 6 3 6 11 13 8 6 5 10 10 8 8 9 10 10 12 11 9 12 13 12 11 10 10 10 11 9 8 6 6 2 2 4 2 3 2 3 1
4 6 6 5 3 2 5 3 5 5 5 5 10 8 10 9 9 11 12 12 12 12 10 13 14 13 12 10 9 8 8 7 7 5 5 4 4 4 3 2 2 3 3 3
6 3 2 4 5 3 12 8 6 3 4 8 2 7 6 6 8 12 14 14 13 12 13 14 12 11 10 7 7 7 8 8 6 6 6 6 6 4 1 2 4 3 4 4
7 4 4 2 9 6 7 7 4 6 6 5 4 7 9 4 4 11 16 16 14 14 14 13 13 11 9 9 8 8 8 8 8 7 7 7 6 3 1 5 4 6 5 6
9 8 4 1 4 2 3 4 4 5 3 0 2 6 5 4 1 5 14 15 15 15 13 13 12 10 10 9 9 8 7 8 8 8 7 5 1 2 4 5 6 6 7 8
7 5 5 3 1 4 5 5 4 3 1 3 3 3 7 3 4 9 13 16 17 15 13 12 11 9 9 8 8 7 7 8 7 6 4 2 1 3 5 7 7 6 8 8
4 5 2 5 1 7 4 9 4 3 4 5 5 4 2 8 9 12 16 17 16 14 12 10 8 8 7 6 7 8 7 7 6 3 2 1 3 5 5 5 7 7 8 9
5 3 6 3 7 6 6 5 1 1 3 3 2 3 4 4 9 14 15 16 15 12 11 9 8 8 8 9 9 8 7 6 5 2 1 3 3 5 5 5 5 6 8 11
2 1 5 7 4 1 3 5 9 5 6 1 2 2 5 3 4 8 12 14 11 11 11 10 11 11 11 9 8 7 7 7 4 5 1 3 5 5 5 5 7 8 11 12
6 4 5 5 6 5 7 9 5 4 1 7 3 2 4 4 5 9 11 12 12 12 12 11 11 10 9 9 8 7 6 6 4 1 4 5 6 6 6 7 8 10 11 12
4 4 7 9 1 1 6 11 12 11 5 4 10 9 8 9 9 9 12 13 14 13 13 12 10 10 9 9 9 8 6 4 1 4 6 6 6 6 6 8 9 10 11 11
4 6 4 1 1 3 4 7 13 15 13 8 9 11 9 9 11 11 12 13 14 14 13 12 11 10 10 9 8 7 5 1 3 6 7 7 6 7 8 8 9 10 10 9
3 3 3 4 2 1 6 8 11 15 16 15 18 18 9 6 7 11 14 15 15 15 14 12 11 10 10 10 8 6 2 2 5 6 7 7 8 9 9 9 10 10 11 10
5 6 4 2 2 2 6 16 18 13 13 14 14 14 7 7 10 14 15 16 15 14 14 13 11 10 9 8 6 4 1 1 4 6 7 8 9 10 10 10 10 11 11 10
6 5 2 1 2 4 2 1 3 13 16 14 16 6 6 2 5 8 11 14 14 14 13 12 10 9 9 7 6 3 1 3 5 6 7 8 9 10 10 10 10 11 10 10
1 5 3 3 4 6 11 4 3 4 7 6 14 7 5 4 4 6 9 12 13 12 10 10 10 9 8 6 4 1 4 5 6 6 7 8 9 10 10 10 11 11 9 11
5 4 1 3 3 4 3 4 1 2 6 3 5 8 8 9 5 2 14 12 11 11 10 11 10 9 7 5 3 4 6 6 7 7 8 9 9 9 10 11 12 9 10 10
2 2 4 3 4 6 1 3 3 3 4 1 5 9 11 8 1 4 12 12 11 11 12 11 9 6 5 3 3 6 6 7 6 7 8 9 8 9 9 10 11 9 8 5
6 6 4 3 3 5 6 6 4 4 1 2 3 4 8 2 4 7 11 13 13 14 13 10 7 5 4 2 4 7 8 7 7 8 9 9 9 8 7 9 9 7 5 5
4 3 1 7 2 4 7 4 1 2 4 2 3 3 7 7 7 10 12 12 12 12 9 6 5 4 3 3 5 7 7 7 8 9 9 9 9 9 8 7 7 6 6 5
5 5 3 2 3 7 8 9 8 9 8 5 4 6 6 8 10 12 12 11 10 8 7 3 4 2 3 4 6 7 7 8 9 8 7 8 9 11 9 5 5 5 5 5
2 8 6 5 9 6 1 2 7 5 2 2 1 0 4 10 11 13 12 10 8 6 4 5 3 3 5 5 7 7 7 8 8 8 8 9 8 9 8 7 7 6 7 5
5 3 4 2 5 4 5 6 7 3 3 4 8 11 11 13 13 12 9 7 6 7 6 5 4 5 6 6 7 7 7 8 9 9 7 6 7 8 7 7 7 10 11 9
Wind_Direction
184 207 207 187 223 64 151 171 165 133 131 148 177 122 86 142 178 177 182 176 165 158 117 106 112 126 137 140 149 159 157 153 162 143 135 189 167 157 128 107 96 97 86 82
196 149 92 121 135 131 167 187 134 126 139 227 172 139 133 171 176 194 181 178 164 146 128 136 131 137 143 149 152 154 158 178 183 180 161 152 153 133 114 110 91 71 62 50
242 79 116 154 143 138 134 151 160 171 134 91 181 178 168 131 153 150 175 150 154 143 129 125 126 127 133 144 153 164 163 163 161 131 128 128 126 137 162 143 137 81 73 50
74 96 159 149 136 275 135 83 137 150 191 192 211 240 171 163 153 170 165 169 147 136 133 133 138 134 129 124 135 144 152 152 149 163 157 166 225 219 57 73 88 78 38 5
103 146 158 151 59 298 103 160 130 184 217 218 186 252 110 164 185 174 174 166 160 154 151 146 145 137 129 128 127 126 122 112 121 128 144 152 121 113 107 66 341 301 260 283
104 90 12 70 68 187 137 142 123 163 239 242 217 266 264 173 224 172 176 176 171 165 162 157 149 146 134 132 136 139 137 128 126 121 117 106 105 84 25 344 305 314 313 313
156 101 110 177 129 150 215 191 216 217 216 252 92 247 279 107 168 186 181 178 177 169 167 167 165 170 160 162 157 157 153 138 124 106 99 99 106 103 279 322 340 328 326 314
184 167 177 135 293 192 158 263 238 263 230 298 171 238 93 79 146 190 180 179 172 174 174 179 177 176 169 165 169 163 153 134 120 116 116 118 111 6 328 349 331 315 311 310
183 122 127 38 156 294 133 219 34 123 54 270 223 190 184 162 168 173 179 177 180 181 179 185 182 185 173 173 157 161 148 127 116 96 104 101 303 337 333 321 313 305 306 303
147 141 175 128 162 64 287 128 179 215 222 234 175 252 132 180 173 178 183 187 183 183 184 185 183 175 171 153 132 121 113 121 125 124 96 272 309 318 325 316 316 322 317 319
160 226 149 187 212 189 155 192 207 287 282 273 271 135 95 146 171 187 190 190 185 182 180 170 164 154 143 136 132 132 132 120 92 82 271 267 342 343 326 327 337 335 321 322
103 154 182 197 122 303 278 229 209 235 174 212 323 293 164 171 197 195 186 184 175 177 166 156 151 150 148 143 131 130 117 99 99 201 218 343 330 324 328 333 331 330 323 322
167 192 176 176 180 181 225 195 205 131 123 205 182 234 167 174 196 200 191 176 174 169 159 154 155 154 146 129 129 126 136 156 149 8 325 320 321 319 324 323 320 323 321 317
189 187 243 240 294 325 197 199 201 208 202 213 237 269 185 209 208 198 200 183 174 173 168 166 160 154 147 148 155 152 162 122 19 333 324 323 317 311 310 313 310 314 316 308
237 231 211 187 72 246 263 225 203 216 234 221 261 249 277 209 216 203 192 184 174 176 174 173 167 160 163 155 151 166 135 149 337 328 320 316 303 295 299 296 302 309 311 311
170 191 187 217 214 284 267 243 234 232 247 251 261 267 274 242 244 185 189 186 184 181 179 176 170 166 164 168 161 146 150 335 325 322 308 308 301 292 286 293 296 302 307 302
172 158 164 231 3 273 274 237 224 224 225 239 247 261 160 195 199 197 192 191 190 184 180 178 174 172 171 160 153 163 197 312 319 308 307 308 303 292 289 291 294 298 307 306
140 129 71 132 222 221 2 87 312 252 256 245 261 252 236 209 191 208 201 194 192 186 181 174 171 165 163 156 162 162 267 306 300 300 304 306 307 299 290 290 289 305 311 301
273 135 117 179 219 317 278 190 224 213 289 254 246 229 178 138 169 207 202 196 190 184 173 168 168 161 155 161 140 222 273 286 288 293 300 311 306 298 297 293 303 304 307 295
84 62 216 148 216 243 45 81 167 225 268 12 220 186 180 171 223 316 181 183 171 165 156 152 141 151 155 144 172 260 275 288 287 299 305 306 303 300 304 306 299 304 298 299
109 33 207 169 239 279 319 127 163 236 21 8 197 184 176 202 324 75 159 163 159 149 140 132 144 147 128 160 235 270 275 277 305 299 301 304 307 308 301 306 296 300 310 311
179 164 176 130 201 271 152 143 218 20 56 348 232 195 204 132 104 131 146 149 142 135 135 138 137 138 164 210 266 277 283 311 310 303 304 306 300 308 303 292 295 305 311 280
222 236 210 215 227 101 196 287 359 335 346 5 322 219 210 181 158 144 142 137 129 131 129 125 129 184 199 259 282 289 298 306 307 304 310 304 302 303 299 294 305 300 296 287
209 175 233 234 162 237 247 264 270 274 280 299 294 291 213 194 159 138 127 126 125 115 115 172 201 225 274 284 291 289 302 297 295 298 310 308 303 311 305 290 272 265 271 283
30 167 198 247 281 268 312 333 336 308 294 279 27 151 176 148 144 129 123 107 108 111 182 217 218 265 289 294 293 304 304 295 288 301 304 299 295 293 292 287 284 275 279 297
188 186 199 256 36 330 37 16 358 20 69 98 110 99 93 114 115 107 104 119 159 204 202 212 237 264 282 297 302 301 294 297 297 296 293 297 297 293 287 283 282 230 229 256